Regional Weather Roundup
Issued by NWS Goodland, KS

Home | Current Version | Previous Version | Text Only | Print | Product List | Glossary Off
Versions: 1 2 3 4 5 6 7 8 9 10 11 12 13 14 15 16 17 18 19 20 21 22 23 24 25 26 27 28 29 30 31 32 33 34 35 36 37 38 39 40 41 42 43 44 45 46 47 48 49 50

000
ASUS43 KGLD 200808
RWRGLD

GOODLAND FORECAST AREA HOURLY WEATHER ROUNDUP
NATIONAL WEATHER SERVICE GOODLAND KS
200 AM MDT SUN APR 20 2014

...OFFICIAL OBSERVATIONS...

CITY           SKY/WX    TMP DP  RH WIND       PRES   REMARKS
GOODLAND KS    PTCLDY    45  44  97 NE3       30.01S
HILL CITY KS   MOCLDY    57  50  77 CALM      29.98S
IMPERIAL NEB   CLEAR     47  42  83 NW6       30.00F
MCCOOK NEB     MOCLDY    53  50  89 CALM      29.98F
AKRON CO       PTCLDY    45  38  76 SW7       30.04F
BURLINGTON CO  PTCLDY    46  42  86 NE9       30.01F
LIMON CO       MOCLDY    41  37  86 NW6       30.07F
$$

...UNOFFICIAL OBSERVATIONS...

CITY           SKY/WX    TMP DP  RH WIND       PRES   REMARKS
COLBY KS       CLEAR     50  48  93 NE5       30.00S
LENORA KS        N/A     57  32  39 NE5         N/A
LEOTI KS         N/A     55  32  41 S7          N/A
NORTON KS      PTCLDY    55  48  76 E5        29.96R
OBERLIN KS     MOCLDY    54  50  87 N8        29.97F
SHARON SPRINGS   N/A     49  46  90 CALM        N/A
ST FRANCIS KS  PTCLDY    50  45  81 CALM      30.00S
WAKEENEY KS      N/A     58  48  67 MISG        N/A
KIT CARSON CO    N/A     49  44  84 MISG        N/A
$$



USA.gov is the U.S. government's official web portal to all federal, state and local government web resources and services.